Torna al catalogo

STARLINK-5420

AttivoComunicazioniVLEO
NORAD 54798·PAYLOAD·🇺🇸 United States

Lanciato Dec 17, 2022 da Cape Canaveral Space Force Station

Loading…

Prossimi Passaggi (prossime 24 ore)

TLE

AggiornatoSource: CelesTrak SupGP

Epoca: Sep 15, 2026, 02:23 UTC

1 54798C 22175AS  26258.09979167 -.00038584  00000+0 -11040-2 0  2586
2 54798  53.1594 243.1111 0001333  90.2715  38.2572 15.35415124    18

Traccia STARLINK-5420 in tempo reale con AllMySat

Download on the App Store